Regional Weather Roundup
Issued by NWS Kansas City/Pleasant Hill, MO

Home | Current Version | Previous Version | Text Only | Print | Product List | Glossary On
Versions: 1 2 3 4 5 6 7 8 9 10 11 12 13 14 15 16 17 18 19 20 21 22 23 24 25 26 27 28 29 30 31 32 33 34 35 36 37 38 39 40 41 42 43 44 45 46 47 48 49 50
000
ASUS43 KEAX 221910
RWREAX

WEATHER ROUNDUP FOR EASTERN KANSAS AND NORTHWEST MISSOURI
NATIONAL WEATHER SERVICE KANSAS CITY/PLEASANT HILL MO
200 PM CDT SUN OCT 22 2017

KSZ040-057-103>105-MOZ028-029-037-043-222000-
...KANSAS CITY METROPOLITAN AREA...

CITY           SKY/WX    TMP DP  RH WIND       PRES   REMARKS
K.C. INTL      PTSUNNY   62  43  49 NW8       30.11F
K.C. DOWNTOWN  CLOUDY    62  44  51 NW8       30.10F
LEES SUMMIT    CLOUDY    60  45  57 NW10      30.11F
OLATHE - IXD   CLOUDY    62  44  51 NW12      30.12F
OLATHE - OJC   PTSUNNY   61  41  47 N10       30.11F
LAWRENCE       CLOUDY    66  40  38 NW10G17   30.11F

$$

MOZ001>008-011>017-020>025-030>033-038>040-044>046-053-054-222000-
...NORTHERN AND CENTRAL MISSOURI...

CITY           SKY/WX    TMP DP  RH WIND       PRES   REMARKS
ST. JOSEPH     CLOUDY    67  39  35 NW9G16    30.10F
MOSBY          CLOUDY    63  41  45 N8        30.10F
WARRENSBURG    CLOUDY    59  45  58 NW6       30.10F
WHITEMAN AFB   PTSUNNY   56  48  74 CALM      30.06F
CLINTON        CLOUDY    55  48  76 NW3       30.12F
SEDALIA        PTSUNNY   56  52  86 NW7       30.11F
WARSAW         NOT AVBL
CHILLICOTHE      N/A     61  44  53 VRB5      30.11F
KIRKSVILLE     CLOUDY    55  50  83 NW7       30.11R

$$

MOZ041-047>049-056>058-063>065-088>090-097-222000-
...EASTERN AND SOUTHERN MISSOURI...

CITY           SKY/WX    TMP DP  RH WIND       PRES   REMARKS
ST. LOUIS INTL CLOUDY    56  55  97 NW18G24   30.03R
SPIRIT OF STL  LGT RAIN  56  55  97 NW14      30.04R FOG
COLUMBIA       CLOUDY    53  51  93 N10       30.08F
JEFFERSON CITY CLOUDY    53  49  86 N7        30.09F
ROLLA          LGT RAIN  50  50 100 N13       30.08F FOG
OSAGE BEACH    LGT RAIN  52  50  93 VRB5      30.10F
SPRINGFIELD    LGT RAIN  52  50  93 N12       30.11R
BRANSON        LGT RAIN  52  52 100 NW9G16    30.11R FOG
JOPLIN         CLOUDY    60  48  64 N10       30.14S
WEST PLAINS    CLOUDY    56  53  90 N6        30.06S

$$

IAZ060-094-KSZ022-034>040-054-083-096-NEZ052-066-093-222000-
...KANSAS...SOUTHEAST NEBRASKA AND IOWA...

CITY           SKY/WX    TMP DP  RH WIND       PRES   REMARKS
TOPEKA         SUNNY     68  40  35 W10       30.11F
MANHATTAN      SUNNY     69  34  27 W6        30.12F
EMPORIA        SUNNY     66  34  30 NW12      30.14F
CHANUTE        SUNNY     67  40  37 N13       30.13F
WICHITA        SUNNY     67  39  35 SW9       30.15F
OMAHA          MOSUNNY   66  31  27 VRB6      30.06F
LINCOLN        SUNNY     69  27  20 SW10      30.08F
FALLS CITY     SUNNY     67  33  28 VRB3G16   30.09F
LAMONI         MOSUNNY   61  41  47 NW12      30.08F
DES MOINES     MOSUNNY   64  38  38 NW13      30.06F

$$




USA.gov is the U.S. government's official web portal to all federal, state and local government web resources and services.